Location: Eschentzwiller
(47.7125°N, 7.3981°E)
Time: 01:05:06
(UTC+00:00)

Cosmos 1825 - Pass Details

Date: 27 October 2020
Orbit: 502 x 508 km, 82.5° (Epoch: 26 November)

Event Time Altitude Azimuth Distance (km) Brightness Sun altitude
Rises 17:46:07 0° 359° (N) 2,627 5.8 -15.0°
Reaches altitude 10° 17:48:27 10° 11° (N) 1,735 4.7 -15.4°
Enters shadow 17:51:23 29° 60° (ENE) 959 3.0 -15.9°
